カタログに戻る

CZ-6A DEB

運用中PO
NORAD 54630·DEBRIS·🇨🇳 China

打ち上げ Nov 11, 2022 から Taiyuan Satellite Launch Center

Loading…

次のパス (今後24時間)

TLE

最新Source: Space-Track

元期: Sep 13, 2026, 17:26 UTC

1 54630U 22151PG  26256.72706374  .00009415  00000-0  11882-2 0  9997
2 54630  98.6236 334.4316 0056122 349.5454  10.4584 14.81052163202544

AllMySatでCZ-6A DEBをリアルタイム追跡

Download on the App Store